Weather History for Altus AFB, OK

Change the Weather History Date:

Friday, December 21, 2012

  Actual Average Record
Temperature  
Mean Temperature 42 °F -  
Max Temperature 66 °F 48 °F 66 °F (2007)
Min Temperature 18 °F 25 °F 12 °F (1998)
Degree Days  
Heating Degree Days 23    
Moisture  
Dew Point 9 °F    
Average Humidity 38    
Maximum Humidity 72    
Minimum Humidity 7    
Precipitation  
Precipitation 0.00 in - - ()
Sea Level Pressure  
Sea Level Pressure 30.32 in    
Wind  
Wind Speed 5 mph (SSW)    
Max Wind Speed 16 mph    
Max Gust Speed -    
Visibility 10 miles    
Events      
Averages and records for this station are not official NWS values.
T = Trace of Precipitation, MM = Missing Value Source: NWS Daily Summary

Daily Weather History Graph

Daily Weather History Graph

Search for Another Location

Airport:

Trip Planner

Search our weather history database for the weather conditions in past years. The results will help you decide how hot, cold, wet, or windy it might be!

Date:

Astronomy

Dec. 21, 2012 Rise Set
Actual Time 7:40 AM CST 5:30 PM CST
Civil Twilight 7:12 AM CST 5:58 PM CST
Nautical Twilight 6:40 AM CST 6:30 PM CST
Astronomical Twilight 6:10 AM CST 7:00 PM CST
Moon 1:09 PM CST (12/21) 1:39 AM CST (12/21)
Length of Visible Light 10h 45m
Length of Day
9h 49m
Waxing Gibbous, 65% of the Moon is Illuminated
Dec 21
Waxing Gibbous
Dec 28
Full
Jan 4
Last Quarter
Jan 11
New
Jan 18
First Quarter

Hourly Weather History & Observations

Time (CST) Temp. Windchill Dew Point Humidity Pressure Visibility Wind Dir Wind Speed Gust Speed Precip Events Conditions
12:55 AM 31.8 °F 26.2 °F 8.8 °F 38% 30.38 in 10.0 mi WSW 5.8 mph - N/A   Clear
1:55 AM 22.6 °F 18.0 °F 10.8 °F 60% 30.38 in 10.0 mi West 3.5 mph - N/A   Clear
2:55 AM 22.5 °F - 11.1 °F 62% 30.38 in 10.0 mi Calm Calm - N/A   Clear
3:55 AM 21.6 °F - 11.8 °F 66% 30.37 in 10.0 mi Calm Calm - N/A   Clear
4:55 AM 19.4 °F - 11.8 °F 72% 30.37 in 10.0 mi Calm Calm - N/A   Clear
5:55 AM 19.6 °F - 11.3 °F 70% 30.38 in 10.0 mi Calm Calm - N/A   Clear
6:55 AM 19.9 °F - 10.0 °F 65% 30.40 in 10.0 mi Calm Calm - N/A   Clear
7:55 AM 18.5 °F 11.7 °F 10.0 °F 70% 30.41 in 10.0 mi South 4.6 mph - N/A   Clear
8:55 AM 25.5 °F 21.3 °F 14.9 °F 64% 30.43 in 10.0 mi SSW 3.5 mph - N/A   Clear
9:55 AM 35.6 °F 30.7 °F 12.9 °F 39% 30.41 in 10.0 mi SW 5.8 mph - N/A   Clear
10:55 AM 42.6 °F 39.0 °F 13.8 °F 31% 30.41 in 10.0 mi SSW 5.8 mph - N/A   Clear
11:55 AM 52.0 °F - 12.2 °F 20% 30.36 in 10.0 mi WSW 6.9 mph - N/A   Clear
12:55 PM 59.7 °F - 5.4 °F 11% 30.30 in 10.0 mi SW 13.8 mph - N/A   Clear
1:55 PM 63.9 °F - 1.6 °F 8% 30.26 in 10.0 mi SW 15.0 mph - N/A   Clear
2:55 PM 63.7 °F - 1.4 °F 8% 30.24 in 10.0 mi SSW 16.1 mph - N/A   Clear
3:55 PM 66.0 °F - 0.3 °F 7% 30.22 in 10.0 mi SSW 15.0 mph - N/A   Clear
4:55 PM 61.5 °F - 4.6 °F 10% 30.22 in 10.0 mi SSW 11.5 mph - N/A   Clear
5:55 PM 51.3 °F - 9.0 °F 18% 30.24 in 10.0 mi South 13.8 mph - N/A   Clear
6:55 PM 41.7 °F 36.7 °F 8.4 °F 25% 30.25 in 10.0 mi SSE 8.1 mph - N/A   Partly Cloudy
7:55 PM 35.8 °F 30.9 °F 10.2 °F 35% 30.26 in 10.0 mi SSE 5.8 mph - N/A   Clear
8:55 PM 37.9 °F 30.5 °F 8.6 °F 30% 30.26 in 10.0 mi South 11.5 mph - N/A   Clear
9:55 PM 32.0 °F 28.7 °F 9.3 °F 39% 30.25 in 10.0 mi East 3.5 mph - N/A   Clear
10:55 PM 35.1 °F - 9.1 °F 34% 30.25 in 10.0 mi Calm Calm - N/A   Clear
11:55 PM 34.9 °F 30.8 °F 9.3 °F 35% 30.22 in 10.0 mi SSE 4.6 mph - N/A   Clear